Siga o Apolo11 no Facebook   Siga o Apolo11 no Twiiter
Ciência, Espaço e Tecnologia




Elementos Keplerianos formato Two Line

Para que um programa de rastreio possa saber a localização exata de qualquer satélite no espaço e assim poder rastreá-lo corretamente, é necessário que ele seja carregado com algumas informações.

Estas informações são chamadas de Elementos Orbitais ou Elementos Keplerianos e consistem em 2 linhas com dezenas de números. Esses números nada mais são que os parâmetros orbitais do satélite, tais como altitude, atitude, excentricidade da órbita, número de órbitas por dia, etc.

Com base nestas informações o programa é capaz de determinar com bastante exatidão a posição de qualquer satélite no espaço e nos informar em qual horário este estará dentro do alcance de nossa estação. Para que isso seja feito com precisão é necessário que os dados estejam sempre bem atualizadas.

Devido aos parâmetros orbitais serem descritos em 2 linhas, estes formato é também conhecido internacionalmente por 2line (leia-se Two Line”).

Para atualizar seu programa de rastreio basta copiar os dados disponibilizados e fornece-los ao programa. Nossos elementos orbitais são atualizados diariamente.

NOAATodos os satélites ambientais da série NOAA
30 DiasSatélites lançados nos últimos 30 dias
ISSSatélites e foguetes relacionados à Estação Espacial Internacional
HAMSatélites construídos por radiomadores
CUBESatélites tipo cubo, com 10 centímetros de lado
METEOSatélites voltados à previsão do tempo
EDUSatélites construídos e operados por universidades
VIS100 satélites mais brilhantes que podem ser vistos a olho nú



Satélites Meteorológicos
ORBVIEW 2 (SEASTAR)     
1 24883U 97037A   13196.96603443  .00000076  00000-0  43649-4 0   776
2 24883  98.4547 311.0242 0002798  55.4681  79.0418 14.32661140846771
METEOSAT-7              
1 24932U 97049B   13196.97588264  .00000056  00000-0  10000-3 0  7306
2 24932   8.4783  51.8504 0001379 111.8224 179.0768  1.00270741 58120
NOAA 15                 
1 25338U 98030A   13196.45966230  .00000096  00000-0  59603-4 0  8021
2 25338  98.7259 186.5128 0011401  51.5139 111.0338 14.25243022788875
NOAA 16                 
1 26536U 00055A   13196.23524554 -.00000019  00000-0  14052-4 0  2846
2 26536  99.0409 249.2763 0011290  61.2686 338.5747 14.12896871660534
GOES 12                 
1 26871U 01031A   13196.38837988 -.00000286  00000-0  00000+0 0  1430
2 26871   3.1094  69.1069 0003724  63.3373 240.9916  1.00272297 43935
FENGYUN 1D              
1 27431U 02024B   13198.04764496 -.00000134  00000-0 -52166-4 0  4053
2 27431  98.8183 161.5003 0015409 152.3662 207.8328 14.09400728574805
NOAA 17                 
1 27453U 02032A   13196.46085053  .00000078  00000-0  50862-4 0  1980
2 27453  98.3124 209.0430 0012972  85.2094  65.9939 14.24603683574742
METEOSAT-8 (MSG-1)      
1 27509U 02040B   13197.10757447  .00000023  00000-0  00000+0 0  4567
2 27509   2.1818  62.6432 0002114  66.1411 207.8776  1.00277863 39930
KALPANA-1 (METSAT 1)    
1 27525U 02043A   13198.02399377 -.00000084  00000-0  00000+0 0  7363
2 27525   3.7096  66.5347 0002831 188.1599 122.9625  1.00272701 39733
INSAT-3A                
1 27714U 03013A   13196.57548819 -.00000258  00000-0  10000-3 0  7690
2 27714   0.0358  78.2845 0001340  99.3163  56.6999  1.00270736 37631
FENGYUN 2C              
1 28451U 04042A   13197.64087938 -.00000365  00000-0  10000-3 0  7274
2 28451   4.7976  62.1527 0001483  97.0590 129.2107  1.00259468 31993
HIMAWARI-6 (MTSAT-1R)   
1 28622U 05006A   13195.42413427 -.00000279  00000-0  10000-3 0  9080
2 28622   0.0159 161.9803 0000739 170.7718 252.4075  1.00270779 30679
NOAA 18                 
1 28654U 05018A   13197.50444990  .00000024  00000-0  38516-4 0  6872
2 28654  99.1018 166.1461 0015323 124.6110  23.5290 14.11839684420191
METEOSAT-9 (MSG-2)      
1 28912U 05049B   13196.80311322  .00000067  00000-0  00000+0 0  6258
2 28912   0.3577 317.0553 0001185 127.4582 148.0400  1.00280095 27780
MTSAT-2                 
1 28937U 06004A   13197.64707285 -.00000243  00000-0  00000+0 0  4623
2 28937   0.0449 237.4107 0004114 213.2893 221.9225  1.00272099 27170
FORMOSAT-3 FM6          
1 29047U 06011A   13197.61914843  .00000142  00000-0  73400-4 0  1444
2 29047  71.9784 226.5888 0049541  99.2808  46.7695 14.27694348380385
FORMOSAT-3 FM1          
1 29048U 06011B   13197.81989317  .00000098  00000-0  55740-4 0  2241
2 29048  71.9704 139.9082 0043766  50.3792 343.0068 14.27692644382896
FORMOSAT-3 FM5          
1 29049U 06011C   13197.77620571  .00000131  00000-0  69332-4 0  1611
2 29049  72.0221 297.3829 0033840 101.1719  43.3474 14.27707803378662
FORMOSAT-3 FM3          
1 29050U 06011D   13197.78062706  .00000431  00000-0  10716-3 0  4969
2 29050  72.0190 337.2395 0053864 234.1634 125.4508 14.55935439388000
FORMOSAT-3 FM4          
1 29051U 06011E   13198.14367080  .00000008  00000-0  19517-4 0  2174
2 29051  72.0055 203.1316 0070390 331.9690  91.6648 14.27711792381304
FORMOSAT-3 FM2          
1 29052U 06011F   13197.46448166  .00000156  00000-0  78886-4 0  2374
2 29052  72.0353 271.2542 0039609  66.6414  12.9059 14.27766742379514
GOES 13                 
1 29155U 06018A   13196.38802922 -.00000250  00000-0  10000-3 0  6440
2 29155   0.1239 260.4889 0003484 189.7633 268.1836  1.00275452 26189
METOP-A                 
1 29499U 06044A   13197.79354500  .00000039  00000-0  37655-4 0   916
2 29499  98.7120 257.0966 0001584  65.6019 294.5323 14.21480854349788
FENGYUN 2D              
1 29640U 06053A   13197.80092487 -.00000203  00000-0  10000-3 0  7183
2 29640   1.6666  72.0189 0001211  30.4398 207.2391  1.00277313 24247
FENGYUN 3A              
1 32958U 08026A   13198.14954038  .00000081  00000-0  59004-4 0   902
2 32958  98.6029 262.4369 0010468 101.4564 258.7796 14.19358664266314
NOAA 19                 
1 33591U 09005A   13196.46473066  .00000142  00000-0  10252-3 0  8675
2 33591  98.9040 138.3083 0013855 355.0748 142.1981 14.11525310228486
GOES 14                 
1 35491U 09033A   13196.60105543 -.00000087  00000-0  10000-3 0   352
2 35491   0.2953  82.6425 0004753 108.4310 213.5552  1.00272710 14868
METEOR-M 1              
1 35865U 09049A   13198.06225551 -.00000010  00000-0  14854-4 0  6284
2 35865  98.5997 249.7494 0002733   8.4650 351.6574 14.21889901198713
GOES 15                 
1 36411U 10008A   13196.48409613  .00000090  00000-0  10000-3 0  6528
2 36411   0.2413  85.9781 0000926   6.9513 239.5061  1.00268843 12355
COMS 1                  
1 36744U 10032A   13196.88108802 -.00000344  00000-0  10000-3 0  6123
2 36744   0.0202  52.3307 0000951  28.6225 298.3079  1.00271643 11330
FENGYUN 3B              
1 37214U 10059A   13198.17366131  .00000070  00000-0  54286-4 0  9561
2 37214  98.8022 142.8044 0001593  31.2178 328.9093 14.19349267139813
ELEKTRO-L 1 (GOMS 2)    
1 37344U 11001A   13197.72627265 -.00000099  00000-0  00000+0 0  6616
2 37344   0.0606 203.9855 0003171 306.7022 121.5829  1.00271731  9154
SUOMI NPP               
1 37849U 11061A   13197.03782338  .00000739  00000-0  37140-3 0  5314
2 37849  98.7511 135.2229 0001004  37.4500 322.6772 14.19558101 88901
FENGYUN 2F              
1 38049U 12002A   13197.80885566 -.00000355  00000-0  10000-3 0  4023
2 38049   1.2188 278.1987 0003713 267.7157 151.8343  1.00261631  5580
METOP-B                 
1 38771U 12049A   13197.76142919  .00000037  00000-0  36817-4 0  2512
2 38771  98.7014 257.6987 0003288  99.3313 260.8236 14.21497776 42911
METEOSAT-10 (MSG-3)     
1 38552U 12035B   13196.11165302 -.00000006  00000-0  00000+0 0  4095
2 38552   1.0470 241.9037 0000742 267.6287 183.2218  1.00269297  3907


IMAGENS DE SATÉLITES !    Clique e conheça nosso Vídeo Workshop de sensoriamento remoto e imagens meteorológicas.
Apolo11.com - Todos os direitos reservados - 2001 - 2018
Política de Privacidade

"O segredo em negócios é saber alguma coisa que mais ninguém sabe." - Aristóteles Onassis